Погода в Чаа-Холе

Россия / Республика Тыва     51°31′00″N   92°19′56″E
темп.,
°C
ветер,
м/с
пор.,
м/с
влажн.,
%
обл.,
%
осадки,
мм/ч
давл.,
гПа
погр.,
м
15 апреля, чт
чт1501:00+3з345247 0.0 1022123
04:00+1з346044 0.0 102272
07:00+1зюз355479 0.0 1024118
10:00+8з583698 0.0 10221512
13:00+11зсз582998 0.0 10202514
16:00+12с6727100 0.0 10202348
19:00+9ссв3437100 0.0 1021308
22:00+6всв00475 0.0 102310
16 апреля, пт
пт1601:00+3всв115997 0.0 102410
04:00+2св11671 0.0 102410
07:00+2с00685 0.0 102413
10:00+6всв21515 0.0 1022514
13:00+11всв33355 0.0 10181034
16:00+13в43302 0.0 1015833
19:00+12в22350 0.0 101482
22:00+8зюз11432 0.0 101510
17 апреля, сб
сб1701:00+7сз11484 0.0 101410
04:00+5зсз11532 0.0 101410
07:00+6зсз11555 0.0 101410
10:00+10ссв1141100 0.0 1012589
13:00+14св1430100 0.0 10091620
16:00+16зсз4720100 0.0 10062501
19:00+12с3446100 0.0 1007531
22:00+9св226097 0.1 100826
18 апреля, вс
вс1801:00+8сз236996 0.2 1010127
04:00+7зюз117399 0.2 101015
07:00+7ююз126598 0.3 1012378
10:00+8зсз4445100 0.1 10131464
13:00+10з133781 0.3 10121791
16:00+13ссв342939 0.0 10101628
19:00+12вюв223295 0.0 1010787
22:00+8в334872 0.0 101362
19 апреля, пн
пн1901:00+6в01615 0.0 101310
04:00+4в1166100 0.0 101210
07:00+4юз006492 0.0 101142
10:00+8всв2244100 0.0 1009523
13:00+13в333143 0.0 1004848
16:00+15всв27276 0.1 10011637
19:00+14ююз023485 0.5 1000126
22:00+11ю1140100 0.0 100113